Location: Unspecified
(0.0000°N, 0.0000°E)
Time: 03:02:35
(UTC+00:00)

Hubble Space Telescope - Pass Details

Date: 09 October 2017
Orbit: 537 x 541 km, 28.5° (Epoch: 20 October)

Event Time Altitude Azimuth Distance (km) Brightness Sun altitude
Rises 19:46:49 0° 226° (SW) 2,673 5.1 -29.7°
Reaches altitude 10° 19:49:13 10° 216° (SW) 1,782 3.9 -30.3°
Enters shadow 19:50:03 15° 210° (SSW) 1,498 3.4 -30.5°
